Gaithersburg, MD

7:14 PM EST on December 15, 2019 (GMT -0500)
Montgomery County

Weather History for KGAI - October, 2019

Change the Weather History Date:

Saturday, October 26, 2019

  Actual Average (WUND) Record (WUND)
Temperature  
Mean Temperature 58 °F -  
Max Temperature 62 °F - - (-1)
Min Temperature 54 °F - - (-1)
Degree Days  
Heating Degree Days 7    
Growing Degree Days 8 (Base 50)    
Moisture  
Dew Point 50 °F    
Average Humidity 76    
Maximum Humidity 93    
Minimum Humidity 60    
Precipitation  
Precipitation 0.01 in - - ()
Sea Level Pressure  
Sea Level Pressure 30.22 in    
Wind  
Wind Speed 2 mph (ESE)    
Max Wind Speed 7 mph    
Max Gust Speed -    
Visibility 10 miles    
Events Rain    
Averages and records for this station are not official NWS values.
T = Trace of Precipitation, MM = Missing Value Source: NWS Daily Summary

Daily Weather History Graph

Daily Weather History Graph

Search for Another Location

Airport or City:

Astronomy

Oct. 26, 2019 Rise Set
Actual Time 7:29 AM EDT 6:15 PM EDT
Civil Twilight 7:02 AM EDT 6:42 PM EDT
Nautical Twilight 6:30 AM EDT 7:13 PM EDT
Astronomical Twilight 5:59 AM EDT 7:44 PM EDT
Moon 5:23 AM EDT (10/26) 5:48 PM EDT (10/26)
Length of Visible Light 11h 40m
Length of Day
10h 45m
Waning Crescent, 3% of the Moon is Illuminated
Oct 26
Waning Crescent
Oct 27
New
Nov 4
First Quarter
Nov 12
Full
Nov 19
Last Quarter

Hourly Weather History & Observations

Time (EDT) Temp. Dew Point Humidity Pressure Visibility Wind Dir Wind Speed Gust Speed Precip Events Conditions
12:56 AM 54.0 °F 52.0 °F 93% 30.25 in 10.0 mi Calm Calm - N/A   Partly Cloudy
1:56 AM 54.0 °F 52.0 °F 93% 30.24 in 10.0 mi Calm Calm - N/A   Overcast
2:56 AM 54.0 °F 52.0 °F 93% 30.23 in 10.0 mi Calm Calm - N/A   Overcast
3:56 AM 54.0 °F 52.0 °F 93% 30.24 in 10.0 mi Calm Calm - N/A   Overcast
4:56 AM 55.0 °F 50.0 °F 83% 30.24 in 10.0 mi Calm Calm - N/A   Overcast
5:56 AM 54.0 °F 48.9 °F 83% 30.23 in 10.0 mi Calm Calm - N/A   Overcast
6:56 AM 55.9 °F 46.0 °F 69% 30.23 in 10.0 mi Calm Calm - N/A   Clear
7:56 AM 57.0 °F 46.0 °F 67% 30.26 in 10.0 mi Calm Calm - N/A   Overcast
8:56 AM 57.9 °F 46.9 °F 67% 30.27 in 10.0 mi Calm Calm - N/A   Overcast
9:56 AM 59.0 °F 46.9 °F 64% 30.28 in 10.0 mi Variable 4.6 mph - N/A   Mostly Cloudy
10:56 AM 61.0 °F 48.0 °F 62% 30.28 in 10.0 mi Calm Calm - N/A   Scattered Clouds
11:56 AM 61.0 °F 46.9 °F 60% 30.27 in 10.0 mi East 4.6 mph - 0.00 in   Mostly Cloudy
12:56 PM 61.0 °F 48.9 °F 64% 30.26 in 10.0 mi Variable 4.6 mph - 0.00 in   Overcast
1:56 PM 62.1 °F 48.9 °F 62% 30.24 in 10.0 mi ESE 4.6 mph - N/A   Mostly Cloudy
2:56 PM 61.0 °F 48.0 °F 62% 30.22 in 10.0 mi Variable 3.5 mph - N/A   Overcast
3:56 PM 61.0 °F 48.9 °F 64% 30.21 in 10.0 mi Variable 4.6 mph - N/A   Overcast
4:56 PM 60.1 °F 50.0 °F 69% 30.21 in 10.0 mi Variable 4.6 mph - N/A   Overcast
5:56 PM 59.0 °F 50.0 °F 72% 30.19 in 10.0 mi East 4.6 mph - 0.01 in   Overcast
6:56 PM 57.9 °F 50.0 °F 75% 30.19 in 10.0 mi Variable 4.6 mph - N/A   Scattered Clouds
7:56 PM 57.9 °F 50.0 °F 75% 30.19 in 10.0 mi Variable 4.6 mph - N/A   Partly Cloudy
8:56 PM 57.9 °F 52.0 °F 81% 30.19 in 10.0 mi Variable 6.9 mph - N/A   Clear
9:56 PM 57.9 °F 53.1 °F 84% 30.18 in 10.0 mi Variable 6.9 mph - 0.00 in Rain Light Rain
10:56 PM 57.0 °F 53.1 °F 87% 30.17 in 10.0 mi Variable 6.9 mph - 0.00 in   Partly Cloudy
11:52 PM 57.2 °F 53.6 °F 88% 30.11 in 10.0 mi ESE 6.9 mph - 0.00 in   Overcast
11:56 PM 57.0 °F 54.0 °F 89% 30.14 in 10.0 mi Variable 6.9 mph - 0.00 in   Overcast